Regional Weather Roundup
Issued by NWS Mobile, AL

Home | Current Version | Previous Version | Text Only | Print | Product List | Glossary On
Versions: 1 2 3 4 5 6 7 8 9 10 11 12 13 14 15 16 17 18 19 20 21 22 23 24 25 26 27 28 29 30 31 32 33 34 35 36 37 38 39 40 41 42 43 44 45 46 47 48
000
ASUS44 KMOB 072212
RWRMOB
REGIONAL WEATHER ROUNDUP
NATIONAL WEATHER SERVICE MOBILE AL
400 PM CST SUN FEB 07 2016

NOTE: "FAIR" INDICATES FEW OR NO CLOUDS BELOW 12,000 FEET WITH NO
      SIGNIFICANT WEATHER AND/OR OBSTRUCTIONS TO VISIBILITY.

  * THESE STATIONS ARE PART OF THE UNIVERSITY OF SOUTH ALABAMA
    MESONET AND ARE NOT UNDER NWS OR FAA QUALITY CONTROL.

ALZ061>064-072300-
COASTAL ALABAMA

CITY           SKY/WX    TMP DP  RH WIND       PRES   REMARKS
MOBILE REG APT SUNNY     59  19  21 VRB5      30.11S
BROOKLEY FIELD SUNNY     57  24  28 S5        30.12S
USA CAMPUS*    NOT AVBL
DOG RIVER*     NOT AVBL


CITY           SKY/WX    TMP DP  RH WIND       PRES   REMARKS
MOUNT VERNON*  NOT AVBL
SARALAND*      NOT AVBL
BAY MINETTE*   NOT AVBL
LOXLEY*        NOT AVBL
ROBERTSDALE*   NOT AVBL
FAIRHOPE*      NOT AVBL
ELBERTA*       NOT AVBL
FOLEY*         NOT AVBL
GRAND BAY*     NOT AVBL
DAUPHIN ISLND* NOT AVBL
BON SCOUR NWR* NOT AVBL
GULF SHORES    SUNNY     58  24  27 W10       30.10S

$$

ALZ051>060-072300-
INTERIOR SOUTHWEST AND SOUTH CENTRAL ALABAMA

CITY           SKY/WX    TMP DP  RH WIND       PRES   REMARKS
GREENVILLE     NOT AVBL
EVERGREEN      SUNNY     59  22  24 NW6       30.07F
CASTLEBERRY*   NOT AVBL
ATMORE*        NOT AVBL
DIXIE*         NOT AVBL
ANDALUSIA/OPP  SUNNY     62  23  22 NW8       30.06
ANDALUSIA*     NOT AVBL
FLORALA APT    SUNNY     58  24  27 VRB3      30.07F
FLORALA*       NOT AVBL

$$

FLZ001>006-072300-
WESTERN FLORIDA PANHANDLE

CITY           SKY/WX    TMP DP  RH WIND       PRES   REMARKS
PENSACOLA      SUNNY     60  22  23 W5        30.08F
NAS PENSACOLA  NOT AVBL
MILTON         MOSUNNY   58  24  27 NW8       30.08F
WHTNG S FIELD  MOSUNNY   61  25  25 W9        30.08F


CITY           SKY/WX    TMP DP  RH WIND       PRES   REMARKS
WALNUT HILL*   NOT AVBL
JAY*           NOT AVBL
DUKE FIELD     SUNNY     60  23  24 NW6       30.05F
CRESTVIEW      SUNNY     60  22  23 NW13      30.07F
VALPARAISO     SUNNY     61  23  23 NW7       30.05F
DESTIN         SUNNY     61  25  25 NW6       30.06F

$$

MSZ076-079-072300-
INTERIOR SOUTHEAST MISSISSIPPI

CITY           SKY/WX    TMP DP  RH WIND       PRES   REMARKS
LEAKESVILLE*   NOT AVBL
AGRICOLA*      NOT AVBL

$$

MARINE OBSERVATIONS

STATION/POSITION TIME  TEMP    WIND        PRES    WAVE
                       AIR SEA DIR/SP/G            HT/PER
                 (UTC) (F)     (DEG/KT/KT) (MB)    (FT/S)
PASCAGOULA       2100   56     230/  9/ 13 1019.8F
PETIT BOIS ISLND 2100   54     230/  9/ 11 1020.6F
KATRINA CUT      2100   53     220/  8       N/A
CEDAR POINT      2100   53     200/  7     1019.6F
E DAUPHIN ISLAND 2200   54     200/  7/  9 1019.9S
MIDDLE BAY LIGHT 2100           40/  5     1019.0F
USCG MOBILE BAY  2100   55 55  120/  7/  7 1019.8F
STATE DOCKS      2100   61 54              1019.1F
MEAHER PARK      2100   57     340/  2     1019.3F
WEEKS BAY        2000   58                   N/A
FORT MORGAN      2100   53     240/  5/  6 1019.5F
12 S ORANGE BCH  2150   56 62  270/ 12/ 14 1019.1F   1/ 3
PENSACOLA BAY    2100   62 53  170/  6/  9 1019.0F

$$

SELECTED LOCATIONS ACROSS THE REGION

CITY           SKY/WX    TMP DP  RH WIND       PRES   REMARKS
NEW ORLEANS    SUNNY     59  19  21 VRB3      30.15F
GULFPORT       SUNNY     56  29  35 SW8       30.13S
PASCAGOULA AP  SUNNY     57  31  37 SW9       30.12S
PASCAGOULA*    NOT AVBL
HATTIESBURG    SUNNY     60  21  22 W7        30.11F
LAUREL         SUNNY     59 N/A N/A W5        30.12S
MERIDIAN       SUNNY     59  19  21 NW14      30.09S
JACKSON        MOSUNNY   60  26  27 W9        30.11S
MONTGOMERY     SUNNY     59  22  24 W10       30.06F
TROY           SUNNY     59  23  25 NW8       30.06S
KINSTON*       NOT AVBL
GENEVA*        NOT AVBL
ASHFORD*       NOT AVBL
DOTHAN         SUNNY     57  25  29 NW12      30.06F
PANAMA CITY    SUNNY     59  27  29 NW6       30.04F

$$




USA.gov is the U.S. government's official web portal to all federal, state and local government web resources and services.